GFSSGP_500_rhum_000.txt.gz
RH
47 28 22 9 7 31 68 69 75 82 82 79 82 80 93 97 99 88 79 83 95 92 87 77 61 64 60 50 46 52 45 40 37 42 43 45 43 37 34 35 35 30 26 23 18 12 17 5 29
68 35 10 8 6 2 19 42 46 68 71 68 84 76 95 84 75 75 81 85 69 72 72 72 65 55 47 43 44 43 41 38 40 45 43 35 36 36 33 32 35 34 28 20 18 15 19 9 25
62 76 24 7 4 4 4 12 22 44 53 59 65 77 86 77 64 69 60 64 63 59 65 60 49 38 31 33 34 34 36 39 43 46 43 44 47 41 34 38 34 34 33 31 22 15 20 27 25
56 61 36 16 8 7 7 7 11 29 37 44 52 67 83 56 52 55 48 40 43 39 37 32 32 34 37 36 37 32 30 31 29 28 30 28 28 33 44 48 41 35 37 38 37 28 18 30 26
70 72 44 17 7 6 6 6 9 11 24 44 42 51 49 47 45 52 44 32 33 37 33 31 31 29 28 28 29 25 22 23 26 33 41 39 38 43 57 63 61 48 41 44 47 43 34 24 34
74 88 71 29 10 9 5 5 4 10 11 17 34 46 51 44 38 45 49 46 38 37 38 35 25 26 24 22 22 21 23 25 31 39 41 47 34 48 62 70 58 58 52 48 48 43 38 42 28
77 80 97 71 46 13 14 14 9 6 7 8 8 15 32 48 44 36 36 34 35 35 28 25 23 28 26 23 26 18 23 27 32 40 39 46 69 80 72 74 73 62 52 53 51 49 54 38 40
66 52 76 77 39 18 20 17 24 10 9 7 7 5 13 26 33 42 42 42 35 27 11 12 10 20 31 30 29 28 24 34 39 46 56 76 59 53 49 60 62 40 46 70 67 71 67 69 62
78 78 81 77 74 30 32 26 16 7 4 7 9 10 9 17 20 23 33 32 23 26 16 12 16 15 20 28 33 36 22 36 44 36 48 56 48 45 41 58 68 72 50 74 75 66 67 67 70
80 80 77 56 41 72 51 25 23 30 4 3 9 12 12 13 10 12 21 18 16 14 17 17 16 35 47 55 48 31 58 38 30 27 34 32 29 33 26 35 51 42 50 59 57 74 89 63 42
82 73 58 25 26 41 38 26 26 17 3 2 8 8 11 16 16 14 12 11 10 9 13 36 27 28 21 12 7 12 15 20 25 18 15 25 34 26 42 61 44 35 33 25 23 38 40 41 52
94 84 45 39 29 28 10 9 8 4 4 4 4 7 9 12 16 19 17 15 22 21 36 35 13 14 23 26 25 27 28 18 17 18 26 48 46 56 48 34 20 10 3 1 4 9 12 8 7
76 71 46 43 23 16 5 6 6 3 4 4 4 6 6 3 8 18 16 10 7 8 8 9 14 9 5 9 22 45 30 20 32 22 25 53 28 58 53 31 23 14 4 3 4 2 1 0 0
69 51 55 60 10 6 3 6 7 6 4 4 4 4 4 5 4 6 7 5 4 3 3 5 10 7 14 50 34 34 18 13 27 22 23 15 34 33 46 37 15 14 8 5 3 3 3 2 2
46 43 31 40 12 12 18 7 7 6 5 5 4 4 4 8 6 3 5 4 1 2 2 1 6 30 0 22 17 14 10 10 22 24 22 5 27 20 27 51 13 9 6 8 7 7 6 6 6
56 31 49 37 16 32 52 23 14 28 16 5 5 4 4 4 7 5 6 4 4 5 5 5 11 2 1 12 5 6 8 7 11 21 20 16 8 0 15 39 12 7 7 8 9 9 10 10 9
39 26 65 56 21 62 87 73 74 52 45 35 5 4 4 5 4 3 3 3 3 5 6 3 3 1 3 22 9 11 7 6 12 19 4 7 4 5 10 10 11 8 8 8 10 10 10 10 9
21 25 61 65 82 78 78 76 71 60 51 39 10 4 5 4 4 4 3 3 2 3 4 3 4 4 20 12 12 17 10 9 10 13 14 11 11 10 10 10 11 11 12 13 14 15 15 14 12
19 43 45 80 74 84 89 88 79 78 68 61 18 5 4 6 6 4 4 4 3 4 4 5 8 10 9 6 6 6 5 6 7 9 9 8 8 8 8 8 10 10 11 13 15 16 16 16 15
8 30 54 78 79 85 96 99 81 81 74 76 54 32 10 9 14 9 6 3 3 4 5 6 7 9 8 8 8 8 7 7 7 7 7 8 8 8 7 8 8 8 9 10 11 13 15 15 17
5 18 43 58 81 82 91 84 78 85 72 72 88 70 60 46 48 46 10 6 4 5 6 6 7 8 9 10 9 7 7 7 7 7 8 9 10 9 8 8 8 8 8 8 8 10 12 15 17
8 15 46 67 83 80 83 62 69 88 80 68 59 71 74 68 45 30 22 8 6 6 7 7 8 8 8 8 8 8 8 8 8 7 7 7 7 8 7 8 7 7 7 7 8 11 12 15 18
13 23 44 82 91 86 76 65 43 69 83 60 56 55 67 72 71 73 68 26 7 7 6 6 7 8 8 8 7 7 8 8 8 12 11 8 8 8 7 7 7 6 7 8 9 12 14 16 18
13 75 85 77 81 78 48 44 38 47 52 76 65 55 58 69 72 52 62 48 23 8 10 11 10 8 8 7 7 9 11 11 8 11 8 8 8 7 8 7 8 8 8 8 10 12 14 18 18
17 50 68 68 82 80 67 43 32 43 52 56 56 60 58 66 67 43 34 44 42 12 14 14 13 11 11 12 13 16 11 11 11 10 8 8 8 8 8 8 12 11 9 9 10 12 13 18 20
16 44 57 77 77 76 72 23 32 49 58 60 64 64 56 62 60 49 31 27 42 39 34 28 24 20 29 26 15 13 13 15 13 11 8 4 2 4 5 10 11 11 10 11 11 13 15 18 19
19 37 59 78 73 68 70 46 29 41 51 60 65 69 64 63 62 43 36 28 20 31 38 37 26 32 26 18 14 13 15 19 17 17 22 27 3 2 7 11 12 12 13 13 13 14 16 17 17
30 30 59 74 69 65 61 47 32 39 38 36 56 62 62 67 55 40 44 39 14 13 23 28 39 30 24 18 15 15 15 16 17 19 30 56 30 3 8 12 13 14 16 18 16 14 15 16 18
23 27 47 58 68 63 57 52 48 41 45 45 47 57 58 67 43 36 40 35 26 12 14 19 18 16 14 14 16 17 94 19 20 24 46 72 69 57 15 7 9 12 17 20 18 16 16 18 18
11 16 28 52 50 64 57 42 44 38 34 47 62 53 66 67 48 51 43 51 40 23 17 19 18 28 33 34 27 19 16 97 27 32 63 78 79 62 50 22 4 6 13 18 17 18 21 20 28

GFSSGP_500_rhum_003.txt.gz
RH
19 24 39 30 60 78 78 75 88 98 97 94 90 83 96 96 99 96 75 76 92 90 83 65 61 52 51 56 50 42 35 33 37 41 43 31 27 28 33 32 32 27 21 18 17 15 9 37 31
12 15 22 9 24 50 76 86 86 78 78 84 93 93 93 89 85 97 95 94 88 73 71 63 46 42 48 48 40 38 34 35 37 32 30 32 32 30 33 32 33 31 24 17 22 17 12 35 46
36 13 4 1 6 18 26 43 66 63 61 75 84 94 74 77 82 90 84 75 70 67 55 45 40 36 36 37 30 29 29 34 40 38 41 40 37 35 39 39 38 39 37 28 18 21 29 27 40
38 20 10 5 5 8 17 42 54 48 60 70 84 86 67 63 63 63 64 55 44 34 26 23 27 35 42 37 34 28 28 31 33 32 30 32 35 45 47 43 38 34 38 45 32 22 28 28 29
62 25 13 8 6 7 8 11 20 39 54 54 70 86 62 55 50 44 38 34 30 23 22 29 34 35 34 30 31 24 23 23 30 40 36 28 30 39 58 56 53 51 49 49 46 38 29 24 33
90 68 27 9 5 5 5 6 8 14 30 49 53 53 54 55 46 39 34 36 33 38 37 30 34 26 28 19 18 17 20 32 42 43 42 59 69 54 69 55 63 57 58 51 47 42 42 37 23
91 71 39 17 21 13 8 6 6 7 11 21 44 48 56 53 47 41 42 39 42 34 25 22 25 27 28 35 24 26 29 34 36 42 68 54 60 58 72 71 73 57 61 69 62 67 65 47 36
76 54 41 29 38 29 17 6 4 6 9 11 12 14 35 56 52 44 37 39 38 30 21 11 22 31 20 30 35 32 37 45 49 50 65 51 54 45 57 71 63 49 65 88 71 77 72 74 78
64 63 44 47 47 38 21 10 4 3 5 10 11 10 6 18 32 36 36 36 29 28 15 16 7 10 22 32 28 22 28 36 25 39 50 40 30 26 28 41 47 45 54 66 69 76 86 67 60
60 44 24 30 35 30 19 20 7 3 3 7 8 10 10 12 20 24 27 23 19 17 18 6 28 34 40 30 31 40 32 25 17 16 18 23 29 30 51 52 44 32 30 28 35 45 40 53 56
83 65 37 34 28 25 20 12 6 3 2 5 8 8 12 14 14 14 15 15 10 7 14 13 17 14 12 10 34 22 18 14 12 13 32 45 29 50 38 24 10 2 1 2 5 11 8 5 4
82 49 47 58 29 15 8 5 3 4 3 4 7 8 7 12 17 16 14 12 14 12 18 8 10 23 29 28 33 28 14 15 24 28 45 42 53 49 32 22 7 7 2 2 1 1 0 0 1
83 50 40 39 16 6 6 5 4 4 4 4 5 7 3 11 20 18 15 18 15 16 11 8 6 8 11 18 35 22 14 28 22 25 43 29 48 44 31 15 14 7 4 3 3 3 3 2 4
64 46 45 26 9 4 6 5 4 4 4 4 4 6 4 6 11 12 7 6 7 5 7 7 3 10 39 22 20 18 14 26 27 19 17 20 20 23 45 24 21 3 7 7 8 7 6 5 5
61 43 33 44 10 7 7 3 4 2 3 4 4 4 7 3 5 6 5 4 2 1 4 7 4 4 16 21 9 8 7 12 27 12 14 14 23 19 34 48 23 4 4 7 9 9 9 9 8
61 27 28 22 13 12 11 19 24 26 10 4 3 4 5 7 4 4 3 1 1 2 1 1 21 5 0 10 4 7 5 12 15 14 28 24 30 24 12 23 27 12 5 8 10 10 11 11 10
43 23 36 19 40 33 42 34 42 55 47 32 4 3 4 5 5 4 4 3 3 5 5 4 3 0 0 3 7 6 11 14 15 14 6 20 10 13 18 19 16 13 12 14 15 15 16 15 14
32 33 30 36 53 64 76 67 64 55 55 46 4 4 4 5 6 5 3 2 3 4 4 3 2 0 13 26 24 26 16 23 8 8 8 7 20 11 6 8 7 8 8 10 11 12 15 16 15
45 39 62 83 87 79 87 81 72 69 65 70 24 0 6 9 8 7 6 5 3 3 3 3 3 4 17 5 4 6 4 4 5 6 17 17 14 9 8 6 7 7 8 8 8 9 10 11 14
32 42 57 79 83 80 85 85 79 83 78 85 85 56 10 12 14 14 10 6 4 3 4 3 4 5 10 8 6 7 6 6 6 7 7 8 8 9 8 8 7 7 8 8 8 8 9 10 12
18 38 51 65 82 87 89 84 82 76 77 86 75 77 72 28 22 25 39 10 6 4 4 4 5 7 8 7 7 8 7 6 6 7 7 7 7 7 8 8 8 7 7 7 8 8 9 11 13
8 22 47 68 72 61 87 59 76 89 84 75 69 63 76 75 68 47 33 23 8 5 4 5 7 7 8 7 8 8 7 8 8 8 8 7 10 8 8 8 8 7 6 6 8 8 10 13 15
8 11 45 64 73 65 66 61 71 79 63 72 66 61 56 61 74 69 60 42 35 12 6 6 6 7 8 8 8 8 8 8 8 8 10 8 8 8 8 7 8 7 7 8 8 8 10 13 15
28 31 20 39 65 67 41 53 33 46 52 69 70 69 72 58 66 67 46 56 62 58 19 8 7 7 8 8 8 9 9 11 10 8 10 10 8 7 6 8 8 7 8 9 8 9 10 12 14
45 57 64 33 48 42 31 33 21 45 52 63 75 77 75 74 67 72 54 31 47 52 37 10 8 10 12 14 14 13 19 13 11 12 12 9 8 6 2 2 4 7 9 9 10 10 11 12 14
46 46 50 66 49 43 42 15 26 48 55 55 57 72 76 60 57 73 68 42 26 36 37 23 10 14 20 26 22 25 16 13 15 24 21 18 17 19 18 4 2 8 11 10 11 13 14 15 15
49 46 40 50 67 67 55 21 20 46 56 59 61 60 64 64 69 67 63 53 27 22 19 35 37 33 33 26 22 18 15 15 16 18 20 21 21 36 62 28 2 4 11 14 15 16 17 18 15
36 47 54 44 56 69 58 28 11 30 40 55 52 61 65 62 61 71 62 33 36 22 13 17 24 26 26 18 19 19 19 20 36 95 39 23 36 45 75 73 52 14 8 11 14 14 16 17 16
50 42 61 52 38 54 56 35 22 24 28 42 44 42 54 59 60 66 57 48 43 38 15 11 14 16 21 27 30 36 36 61 63 47 91 66 54 99 80 95 70 54 33 11 5 10 14 15 15
48 44 34 52 26 26 43 50 33 43 45 38 36 27 44 61 61 66 53 55 42 44 15 11 18 21 31 38 46 48 50 60 85 89 76 86 44 82 94 100 95 70 66 46 26 10 7 13 16

GFSSGP_500_rhum_006.txt.gz
RH
34 48 48 70 81 93 99 97 88 92 90 88 85 80 90 88 94 87 89 93 86 81 68 69 77 64 60 48 54 38 32 31 33 37 22 20 22 24 28 31 26 21 18 17 14 11 34 36 65
15 26 16 50 82 95 92 95 94 87 88 90 88 82 92 89 93 97 97 93 78 68 56 46 41 43 41 37 34 29 28 32 35 29 24 23 22 20 24 33 31 26 22 22 16 12 40 55 56
9 8 6 31 50 86 85 82 73 79 86 93 92 95 80 99 94 96 81 75 66 60 50 40 41 35 33 31 28 34 34 36 32 30 29 26 25 29 34 39 40 37 28 20 20 20 34 55 70
15 6 5 10 18 28 51 60 60 64 81 96 95 76 71 69 76 77 71 67 58 38 36 37 42 44 38 30 22 30 29 33 32 26 25 27 31 40 44 44 42 47 46 31 22 27 28 30 53
32 15 30 9 10 16 20 32 44 50 59 91 86 68 62 55 55 59 53 38 23 15 24 37 45 37 39 28 23 24 25 28 30 34 29 27 35 58 60 65 64 56 54 46 37 30 31 37 29
51 47 98 57 7 7 9 11 16 34 48 56 78 64 56 49 40 34 31 28 30 33 32 29 39 35 22 21 22 23 29 34 37 38 56 68 53 60 61 58 63 55 54 50 45 39 38 31 30
53 89 98 92 11 6 6 6 7 15 46 50 50 50 54 52 43 34 33 36 37 28 24 25 26 25 30 24 25 29 34 38 47 65 56 49 56 67 76 68 55 53 61 79 88 71 64 46 41
71 80 75 91 93 11 5 5 7 8 11 24 33 44 49 53 46 38 33 38 36 26 15 26 40 29 30 28 32 38 45 45 52 60 47 38 38 50 54 64 57 64 73 75 75 68 66 74 78
52 97 99 87 91 13 5 4 3 7 9 10 11 12 24 40 47 46 42 35 28 24 19 12 17 36 39 26 26 30 33 26 37 39 28 26 26 38 42 38 31 32 40 41 55 68 65 55 42
40 100 100 54 63 16 9 5 3 4 6 8 10 12 11 15 37 42 37 28 20 21 17 8 27 42 31 33 41 30 22 14 14 15 24 31 40 31 20 10 5 4 4 7 11 10 12 11 16
42 94 66 48 33 25 8 6 3 3 5 6 7 10 14 13 17 26 22 18 16 12 11 25 26 22 12 30 24 17 12 10 14 34 43 40 36 26 8 3 3 2 2 1 1 1 0 1 2
47 36 35 45 25 14 5 2 4 3 4 5 8 6 12 15 18 20 18 14 12 18 18 14 16 28 30 37 27 12 14 21 27 40 30 46 47 26 16 11 4 3 2 3 3 2 3 3 4
50 37 41 31 16 8 5 3 4 4 4 4 6 4 8 14 16 14 14 13 18 17 11 11 13 18 20 32 20 11 26 26 23 36 39 31 34 54 28 43 24 7 6 7 6 5 4 4 4
62 34 38 19 6 6 5 4 4 4 4 4 4 2 7 12 17 17 18 19 16 14 10 3 6 24 28 18 22 11 16 24 17 25 9 19 14 72 48 28 21 10 6 8 9 9 8 7 7
66 26 30 11 4 6 4 3 3 3 4 4 4 6 4 6 8 8 6 7 6 6 10 2 10 22 31 6 15 7 6 14 17 17 8 21 47 47 39 42 26 16 14 8 9 16 11 10 10
57 41 64 10 7 6 8 51 4 5 3 4 4 4 7 4 5 5 4 3 2 2 4 6 6 4 2 15 8 7 7 11 22 21 32 38 36 18 31 32 26 24 14 20 13 14 12 12 13
50 75 84 24 8 11 14 72 44 43 35 5 3 4 4 6 4 4 3 1 2 3 3 3 11 13 1 1 18 4 8 36 43 29 24 19 23 19 32 24 15 21 22 35 19 13 11 9 10
77 61 85 72 19 24 19 48 48 39 42 31 4 3 4 5 4 4 4 3 3 4 6 4 1 1 0 17 46 44 23 24 9 8 26 18 40 18 26 21 15 15 22 9 9 9 8 8 10
80 86 85 84 74 70 69 63 52 42 34 26 8 3 5 6 5 4 4 3 3 3 3 3 3 2 31 34 11 7 9 4 10 13 27 20 12 9 14 13 8 9 7 7 7 7 7 9 10
70 78 81 83 80 79 87 75 66 57 47 33 33 38 7 8 10 9 7 4 4 3 3 3 3 3 9 12 5 9 7 6 7 7 15 19 9 11 10 8 8 8 7 7 7 7 8 10 11
36 71 84 94 75 80 94 83 66 65 63 53 62 63 58 20 10 13 18 13 6 3 3 3 4 4 11 18 23 19 12 12 8 7 10 12 8 10 11 8 7 7 6 7 6 7 8 9 10
28 32 86 90 93 82 66 91 86 81 51 45 56 66 74 75 69 53 44 28 25 7 4 4 5 6 7 13 11 12 7 7 7 7 8 8 8 8 10 9 7 6 7 7 6 7 7 8 10
15 62 52 80 92 96 100 91 92 69 62 58 62 57 60 61 65 69 61 46 35 19 10 6 5 6 7 9 8 7 8 8 8 8 8 10 9 11 9 8 6 6 7 7 7 8 7 8 10
21 70 77 74 84 84 90 93 77 83 49 67 76 65 66 59 61 65 61 49 56 52 40 18 9 6 6 7 7 7 8 9 10 14 13 10 12 10 8 6 3 1 2 5 8 9 8 9 10
28 46 66 73 77 79 89 90 51 82 70 55 75 70 73 85 70 62 65 43 34 29 48 50 31 8 8 9 11 14 20 16 21 14 12 14 16 17 16 16 18 21 3 3 10 10 10 11 12
18 26 66 69 67 72 88 79 42 24 53 53 62 68 74 80 55 54 50 53 34 38 26 38 44 22 10 10 15 26 29 23 17 12 12 14 16 16 18 21 28 45 29 3 10 13 12 12 15
25 34 52 68 69 62 59 58 19 34 49 54 59 69 72 71 58 64 63 45 46 34 23 23 26 37 30 33 33 29 22 13 13 17 22 43 54 27 22 34 33 64 65 39 3 6 13 14 17
35 28 60 66 69 70 68 71 70 35 46 54 57 59 60 61 61 60 59 59 57 28 25 18 12 16 28 30 25 15 16 23 31 48 65 57 68 77 78 43 92 81 71 67 56 36 10 7 13
8 54 51 70 70 67 72 68 72 29 43 53 69 58 61 63 63 61 59 65 62 43 33 36 10 13 23 19 24 34 37 38 40 39 54 77 92 62 76 87 71 96 91 80 67 54 48 27 14
32 38 64 63 56 70 64 56 63 70 25 35 43 66 63 50 50 60 54 60 60 48 32 20 8 10 18 29 41 48 39 36 38 44 77 66 61 73 96 91 94 66 90 76 85 84 72 74 63

GFSSGP_500_rhum_009.txt.gz
RH
50 63 78 92 97 97 92 94 94 91 88 88 86 99 99 96 97 93 90 88 82 86 90 96 89 72 70 46 37 31 31 33 34 29 25 24 26 30 30 28 24 19 18 15 10 28 25 62 78
43 28 59 68 94 98 98 96 98 93 99 98 88 90 84 92 86 82 88 74 68 58 54 51 45 42 43 30 28 29 31 34 33 22 21 21 21 27 30 30 28 22 22 16 10 36 38 50 73
17 51 74 82 89 99 86 88 88 87 89 99 92 95 86 81 83 83 72 67 66 49 36 38 34 28 25 25 32 32 34 32 28 27 27 20 21 28 33 35 35 29 22 18 17 23 46 63 69
6 13 34 100 96 78 80 72 66 74 84 96 96 84 81 77 76 72 67 64 53 46 35 37 38 33 24 19 27 29 30 29 30 27 21 17 26 38 38 37 38 43 37 23 24 31 30 52 68
32 55 95 40 22 49 40 39 47 64 74 86 78 68 63 61 65 63 59 45 20 22 34 40 37 36 29 18 18 20 25 26 26 25 22 21 32 45 56 58 57 52 45 39 31 30 38 31 39
71 99 96 87 12 10 12 18 40 47 64 85 74 61 52 47 48 45 30 29 33 33 26 35 38 28 19 17 17 21 27 32 35 49 61 47 44 57 58 59 62 54 53 52 48 41 37 27 36
97 80 93 87 10 5 5 8 64 36 51 60 67 57 51 42 32 26 31 41 38 26 24 26 29 22 18 19 22 29 36 42 55 48 45 56 63 67 63 45 54 60 66 81 84 65 64 49 42
97 91 91 90 98 6 5 8 10 22 36 48 50 43 41 44 42 36 38 37 34 22 21 32 30 30 23 24 34 38 42 50 51 42 39 37 40 47 51 55 49 66 73 73 74 76 66 70 72
71 84 96 97 91 70 4 5 8 8 14 19 18 32 32 43 43 38 37 32 25 26 17 31 36 37 25 25 27 33 26 38 38 26 28 37 41 40 30 25 22 28 30 33 43 38 45 47 42
88 94 97 88 97 94 6 19 4 8 9 9 10 16 24 33 30 31 25 21 22 22 13 8 35 29 20 41 30 21 14 14 16 28 34 30 18 8 4 2 2 2 2 2 2 2 2 4 4
86 97 94 90 89 98 30 41 3 5 5 6 7 10 22 12 10 14 21 16 12 12 18 38 33 20 25 25 18 13 9 15 37 41 41 32 20 5 9 4 4 2 7 36 8 2 4 2 2
51 99 98 99 61 98 75 76 5 3 18 5 6 8 10 14 14 17 15 11 11 13 19 10 14 25 33 27 13 12 18 27 38 26 43 45 19 12 17 17 8 45 5 4 4 4 4 5 5
63 90 86 88 73 87 92 66 7 4 4 5 2 5 10 12 13 12 10 7 13 16 11 19 24 22 29 27 10 24 28 23 30 38 21 26 54 31 36 18 7 8 12 10 10 9 7 6 7
81 81 80 84 83 25 97 75 5 4 4 5 1 4 8 13 14 11 10 14 13 10 9 8 15 26 20 26 11 14 22 19 21 16 14 14 45 49 40 32 16 10 9 8 9 15 10 10 10
75 75 74 52 86 28 38 32 4 4 4 4 4 4 5 14 13 13 12 10 8 9 6 4 20 40 21 12 12 6 6 17 16 22 9 25 64 27 23 43 25 19 14 13 18 21 12 12 11
72 58 78 84 79 44 5 44 3 3 4 3 4 7 4 5 6 5 5 5 5 8 7 2 8 7 14 11 8 6 10 11 20 19 40 33 29 19 27 24 13 22 22 45 25 14 13 12 14
74 74 78 97 44 61 6 97 41 9 4 3 3 4 5 4 4 4 4 2 2 2 3 4 7 21 1 4 14 8 6 41 36 37 30 15 36 19 26 26 20 17 23 20 14 10 9 8 10
81 76 76 92 74 69 5 93 46 23 12 2 3 3 4 4 5 4 3 1 2 3 4 4 4 6 3 2 47 52 43 30 8 7 20 24 26 14 26 20 19 12 9 8 10 8 8 7 8
73 73 70 79 93 26 80 92 39 38 21 4 2 3 3 3 4 3 3 3 3 4 5 5 4 2 2 59 54 9 18 5 8 7 20 13 11 9 24 15 13 15 7 6 6 6 7 6 8
73 71 76 87 82 84 82 94 97 69 34 15 3 2 4 5 4 4 3 3 3 3 3 3 3 3 4 22 11 4 6 5 5 6 9 17 14 14 14 16 21 8 7 7 6 6 6 6 8
68 69 71 74 77 98 91 97 96 94 57 37 21 10 5 6 8 10 8 5 3 3 3 2 3 3 3 19 28 26 30 13 14 6 6 7 7 8 8 8 10 9 7 6 7 7 6 6 7
61 71 72 70 91 98 82 84 99 76 87 36 36 37 30 22 19 17 24 20 23 14 5 3 3 3 4 13 18 21 28 7 7 7 7 8 11 9 9 9 9 8 7 6 7 7 6 7 7
44 65 71 73 76 88 88 75 96 98 86 79 40 42 34 31 42 53 54 51 42 31 18 6 4 4 4 6 20 16 12 10 8 7 8 11 13 10 10 10 8 6 5 4 4 5 6 7 7
26 65 69 64 68 72 83 86 73 90 97 92 82 55 44 45 51 53 60 63 57 50 37 23 8 6 5 6 8 8 16 13 11 14 14 18 12 10 13 13 14 14 14 16 8 1 5 8 8
28 60 68 64 62 60 70 83 90 86 86 85 85 99 86 61 51 54 56 56 54 33 32 38 50 38 14 6 6 7 10 13 21 25 22 15 11 11 12 13 15 17 18 21 36 19 2 7 8
7 31 55 65 60 59 64 67 66 91 80 87 94 80 90 80 57 71 60 58 41 30 29 22 25 45 48 23 9 11 12 22 31 25 16 11 12 21 42 48 38 43 41 39 53 53 19 3 5
21 29 46 56 61 57 58 62 80 91 91 81 79 76 81 83 62 75 58 53 48 45 23 22 19 19 35 35 18 17 31 34 23 14 16 18 34 55 67 68 66 72 76 57 77 76 61 48 14
6 27 48 58 55 57 54 58 67 73 67 76 84 77 80 88 63 71 57 59 56 60 48 22 18 17 13 22 36 36 28 20 14 25 24 28 65 55 66 63 96 94 81 76 74 87 75 70 57
5 8 49 55 57 52 57 58 55 69 92 72 75 71 74 87 62 60 60 60 59 64 58 35 29 22 10 9 22 22 18 20 32 30 46 30 33 53 56 78 90 89 87 98 96 85 68 80 73
40 15 32 54 58 56 53 53 65 65 70 72 78 75 79 89 70 58 63 60 53 51 52 59 31 16 7 10 14 18 25 38 33 50 44 37 45 43 67 89 73 63 61 87 89 92 81 100 84

GFSSGP_500_rhum_012.txt.gz
RH
80 78 91 97 97 82 98 95 84 85 89 81 92 91 94 96 97 93 89 82 84 84 88 90 70 79 49 44 31 25 24 29 30 26 24 24 29 31 30 27 22 20 19 13 16 20 40 61 65
42 72 91 97 95 98 95 97 99 95 94 86 82 96 97 97 88 85 85 67 67 74 66 54 46 42 34 25 23 26 29 30 21 19 19 22 21 22 27 28 26 25 17 13 17 27 24 56 67
45 90 75 80 87 98 85 78 80 84 88 82 98 94 88 80 70 72 64 62 46 38 39 34 29 27 24 27 26 28 28 27 22 21 22 19 22 27 30 29 30 25 18 17 14 23 35 41 63
45 88 64 90 98 96 92 72 64 65 80 87 84 95 72 73 69 63 64 56 43 36 35 36 32 25 19 21 21 24 25 24 25 24 20 19 26 32 36 34 36 40 33 24 21 24 24 40 59
39 64 81 92 100 99 49 49 99 63 66 75 75 68 63 64 64 61 55 31 22 32 38 37 36 32 17 14 15 23 25 24 24 24 22 22 30 45 51 52 49 44 39 36 31 27 28 24 32
81 43 78 98 25 57 19 18 44 54 75 69 66 62 57 47 55 46 28 22 33 27 33 38 37 28 16 15 19 24 28 33 41 52 47 41 40 49 54 60 57 54 51 54 46 40 33 24 23
73 68 88 97 58 7 8 81 92 20 24 56 71 64 46 34 32 28 34 36 30 24 27 35 28 17 15 19 25 30 35 46 42 40 50 53 57 51 46 50 57 62 78 78 77 62 61 48 39
96 100 96 99 90 68 5 35 90 14 42 42 52 49 41 32 33 30 36 35 29 19 23 29 24 26 21 28 31 33 40 38 36 34 33 35 39 40 49 36 50 68 66 63 73 71 60 56 53
98 99 97 98 87 75 12 8 28 8 12 26 75 35 42 35 36 35 34 27 23 15 24 37 28 26 25 25 30 25 31 33 27 30 33 30 21 13 46 11 12 9 9 8 10 13 14 17 24
89 80 86 96 68 93 42 10 4 6 8 10 8 17 16 40 37 32 26 13 26 17 11 30 37 18 27 23 15 13 16 23 32 26 17 10 96 6 2 15 3 6 24 10 4 22 67 3 3
66 95 99 77 70 67 97 42 3 4 5 6 6 8 8 10 13 12 10 14 17 13 8 30 20 22 24 20 11 9 20 35 36 31 22 14 8 14 65 49 34 48 74 14 23 20 10 5 5
95 74 78 96 97 65 99 58 22 11 39 5 4 5 7 9 11 8 11 9 12 19 32 28 13 27 23 11 10 17 32 34 26 41 36 14 14 29 53 42 44 42 20 92 11 7 5 6 10
83 90 94 93 91 61 96 88 59 26 5 4 3 2 6 10 10 11 10 8 12 18 8 16 24 32 24 9 21 27 24 30 35 20 22 49 32 30 47 15 9 6 12 8 10 12 10 9 9
78 78 82 79 82 85 84 88 36 8 4 3 3 2 4 7 11 11 7 11 11 7 9 18 20 22 24 12 15 19 19 18 21 12 15 22 54 39 36 29 18 14 10 9 17 17 14 14 13
79 78 77 72 73 93 64 97 56 8 4 3 3 3 2 8 11 9 7 11 6 6 6 20 32 22 15 14 9 5 8 14 15 20 12 45 54 16 27 34 23 22 15 38 26 15 14 11 11
56 72 78 78 88 84 40 98 46 5 4 4 4 6 2 8 9 10 9 6 7 8 3 14 16 14 18 11 9 6 11 17 13 17 45 27 22 21 22 26 28 25 19 36 20 18 10 10 11
46 74 72 77 93 93 29 70 94 41 3 3 3 4 3 4 6 6 4 3 4 6 4 3 9 13 1 5 10 7 6 44 33 36 28 15 35 27 26 19 23 19 10 8 15 15 7 6 8
39 69 70 72 66 83 83 14 33 62 68 11 3 2 3 3 2 4 2 2 2 3 2 3 4 7 13 1 35 67 47 42 11 8 21 31 34 10 40 20 15 11 13 10 6 5 5 6 7
38 74 69 84 96 96 96 81 37 40 68 23 2 3 2 3 3 3 2 1 2 3 4 4 4 3 2 9 54 22 12 12 8 7 10 11 14 13 28 17 26 20 16 7 6 5 5 5 6
24 74 72 81 86 98 97 79 47 59 77 38 5 2 3 2 2 2 2 3 3 3 4 4 3 3 3 12 14 8 4 5 4 5 7 10 12 12 9 12 15 8 11 7 6 5 5 5 6
33 62 73 79 90 90 92 95 97 97 64 50 16 2 3 4 4 3 3 2 2 2 2 2 2 2 3 3 18 30 46 24 14 9 6 6 6 7 8 10 10 8 8 7 6 5 5 5 6
21 39 69 73 88 89 74 90 82 94 52 47 22 11 3 2 4 6 6 6 5 4 3 2 2 2 3 3 13 14 15 24 10 7 7 8 9 11 12 9 9 9 8 6 4 4 4 5 5
14 33 64 69 85 78 85 95 99 94 98 84 39 22 18 9 6 6 7 6 6 15 15 13 5 3 3 4 6 18 22 18 9 8 8 15 21 18 11 9 11 13 14 14 14 16 20 4 3
14 63 62 64 72 90 91 78 64 94 59 90 95 82 31 28 32 34 26 27 33 28 38 34 24 12 4 4 5 6 17 10 14 13 20 25 20 14 10 14 26 30 28 43 44 33 28 43 11
7 54 60 58 61 63 73 86 52 95 88 72 92 97 69 44 65 66 60 45 56 56 50 40 43 42 23 8 5 5 5 7 11 15 23 21 14 13 31 67 64 59 63 61 60 58 53 57 57
10 39 39 56 57 57 48 66 68 89 85 69 95 90 96 59 52 65 66 48 62 59 39 33 23 22 38 46 46 29 7 8 9 16 26 17 16 39 53 62 71 70 63 72 76 78 59 57 68
8 28 16 52 56 58 54 54 44 65 78 66 92 97 96 93 69 48 63 53 55 39 57 43 16 14 17 25 44 40 15 11 16 30 17 15 26 49 45 56 62 69 63 70 93 94 85 85 85
4 14 25 37 52 52 50 55 67 58 71 79 78 93 90 70 66 80 55 49 64 53 58 59 46 25 17 16 15 31 31 27 29 18 19 30 39 30 55 62 61 73 66 73 72 73 85 87 96
14 5 16 36 39 49 50 52 55 62 64 62 58 58 87 79 57 72 48 48 56 61 53 57 53 47 27 17 9 8 18 21 17 16 33 38 32 40 36 39 48 74 73 53 51 60 53 57 65
18 6 5 23 32 40 46 47 57 58 62 69 73 60 51 30 67 87 72 55 42 55 54 48 58 56 22 17 6 5 6 9 9 24 40 40 39 43 44 59 55 73 78 73 55 46 41 37 48

GFSSGP_500_rhum_015.txt.gz
RH
91 86 92 98 95 97 92 93 90 85 86 74 82 92 100 89 81 86 78 74 77 84 78 52 56 39 37 30 24 23 26 24 24 24 24 24 27 27 29 27 21 21 16 10 18 26 46 57 54
69 76 93 98 98 94 87 92 98 88 82 78 89 96 95 81 77 80 68 62 62 55 41 37 30 23 22 21 25 26 27 22 20 18 18 19 18 18 26 26 26 19 16 12 22 22 40 55 65
70 72 97 95 90 98 79 73 77 83 86 82 93 93 76 73 63 66 57 44 36 36 30 26 20 19 25 27 25 25 27 23 20 20 18 15 20 26 26 28 28 23 19 18 17 26 33 42 61
72 89 83 96 52 64 45 62 55 58 69 72 76 70 63 66 63 62 52 42 32 33 34 29 22 19 24 23 23 22 22 23 22 19 17 17 23 28 36 35 37 35 31 23 24 22 30 47 58
95 80 77 97 62 84 42 49 70 48 61 67 70 63 60 60 60 57 46 31 32 33 32 35 32 17 15 16 20 24 24 25 30 36 33 20 26 42 47 46 44 39 34 34 30 28 27 24 33
89 68 83 80 92 43 89 26 56 29 73 62 64 58 50 50 52 36 19 31 22 20 33 35 30 15 14 19 24 27 34 38 43 47 43 35 48 60 53 44 46 56 70 68 51 39 34 28 25
56 73 78 83 97 55 18 31 99 51 25 55 69 57 41 40 35 27 30 27 21 18 29 29 20 13 17 24 29 35 40 39 45 48 52 47 42 44 49 53 56 62 64 67 59 59 63 61 53
65 98 95 87 97 97 88 18 14 4 50 29 44 51 38 24 23 33 35 31 23 16 24 23 21 19 24 30 30 36 29 30 30 28 32 34 36 40 29 28 30 34 38 30 54 54 46 40 38
84 91 97 86 95 96 98 63 5 4 45 8 51 34 38 29 25 28 31 27 27 14 27 22 23 22 22 26 26 31 28 26 26 23 30 17 16 19 39 39 19 2 2 5 17 10 5 5 3
52 98 96 90 96 98 81 68 20 5 4 4 28 14 26 25 37 33 29 13 22 11 29 30 21 18 17 11 18 25 30 27 17 12 25 56 17 50 53 30 59 38 24 29 23 41 5 4 5
94 94 85 96 58 90 98 85 34 7 3 2 5 4 8 7 26 20 20 12 15 8 30 25 12 25 22 8 15 22 30 28 26 19 16 38 50 84 36 42 32 44 26 56 24 6 6 8 8
76 96 93 87 96 81 98 98 72 15 4 4 4 3 6 9 10 10 9 12 11 14 25 15 18 23 12 10 22 34 26 39 40 30 15 17 51 68 98 40 36 40 21 16 22 11 10 8 8
64 85 97 92 94 92 81 85 94 17 6 4 5 2 2 10 9 9 12 10 13 25 17 16 28 13 9 18 23 28 31 30 24 23 44 35 34 38 32 33 17 23 18 19 22 12 10 10 10
72 87 86 96 96 91 83 100 95 91 9 3 3 2 2 6 11 12 11 11 15 8 13 22 30 12 12 23 23 20 19 25 16 16 20 56 47 37 41 32 27 22 15 32 26 14 14 12 11
50 81 84 88 81 94 86 71 94 88 4 3 3 3 3 2 8 10 7 13 8 6 11 18 14 15 16 11 6 5 11 16 20 12 19 51 33 17 28 29 32 20 17 38 20 22 14 7 7
48 58 79 87 72 83 90 82 71 98 28 3 3 6 3 6 6 7 8 7 6 4 16 22 20 20 12 13 8 8 12 18 10 21 47 26 22 22 21 36 23 25 13 9 10 16 10 6 6
46 38 40 72 86 91 88 68 22 80 77 37 2 3 3 6 8 8 8 4 7 3 9 9 8 2 3 2 11 5 14 46 33 29 24 16 30 26 21 18 24 19 12 12 9 5 5 4 5
34 34 29 75 83 78 79 77 67 44 25 25 4 2 3 3 5 4 3 3 3 3 4 4 7 5 4 2 46 63 41 41 19 13 21 29 32 25 18 24 25 24 19 16 6 5 5 5 4
32 45 39 70 76 92 93 85 90 60 32 17 2 2 2 2 2 3 2 2 2 3 3 3 3 2 3 11 47 24 12 14 11 6 10 10 11 16 16 11 11 15 10 8 7 6 6 5 5
25 29 28 77 91 86 77 79 79 99 58 33 4 2 3 2 2 2 1 2 2 3 4 4 3 3 3 10 17 9 4 6 4 5 8 8 6 6 7 8 9 8 8 8 7 6 6 5 5
12 32 39 78 93 80 94 73 72 98 88 93 12 4 3 2 2 2 2 2 3 3 3 2 2 2 2 3 9 15 27 24 16 11 6 6 7 8 11 11 8 9 10 10 12 11 8 4 3
3 30 41 76 93 95 89 86 98 91 81 60 29 45 10 9 3 4 2 2 2 2 2 2 2 2 2 2 3 21 16 13 15 8 8 8 14 20 18 12 9 11 12 13 13 14 14 15 21
2 22 50 74 84 84 84 97 90 85 67 60 66 71 28 17 11 10 6 6 6 5 5 5 6 5 3 3 3 5 16 18 24 10 11 14 20 18 15 10 14 22 32 38 49 52 51 38 22
2 8 33 71 73 86 74 89 93 83 70 74 82 90 82 83 30 28 27 28 24 24 22 21 15 20 20 8 3 3 4 10 16 10 13 19 19 14 12 26 44 44 47 49 52 65 64 59 53
4 4 21 54 65 64 74 74 72 78 90 70 73 91 89 81 66 33 72 57 33 36 42 51 41 27 34 28 11 5 5 5 5 7 9 18 15 16 33 36 41 49 49 52 57 93 71 81 65
4 4 3 12 21 40 57 68 43 55 73 78 81 90 85 78 67 72 78 64 52 56 44 51 44 36 30 25 34 31 26 23 13 7 10 18 12 19 38 38 47 51 56 61 69 64 61 52 75
8 5 6 14 30 44 34 53 63 64 64 81 95 82 78 94 73 55 83 58 54 46 45 40 30 22 19 15 16 33 44 45 34 12 21 10 21 32 35 31 43 50 56 68 55 54 44 44 48
6 9 16 14 12 18 13 45 31 54 55 55 62 75 76 84 76 52 84 58 38 41 50 51 40 36 18 11 12 14 16 34 33 24 13 15 33 35 28 37 44 56 73 82 80 74 80 83 78
7 6 12 21 21 16 25 7 26 58 63 68 63 64 64 64 55 54 64 58 42 43 41 43 44 44 26 20 15 11 8 7 12 15 11 28 34 36 37 34 49 50 61 70 78 72 82 85 79
17 13 13 12 13 24 32 8 34 56 63 76 67 58 63 68 69 62 70 64 42 39 38 36 44 45 39 22 16 7 6 5 10 11 20 35 40 40 38 53 51 55 65 69 72 65 64 63 55